This demonstration page uses our WeatherBlox Daily Observations layout. Learn more.

Left ArrowRight Arrow

41.12389, -100.76542

Hourly Observations for December 6, 2016

Temp ( °F °C ) Dew Point ( °F °C ) Humidity (%) Winds ( mph kmh ) Pressure ( in mb ) Visibility ( mi km ) Precip ( " mm )
12:53 am 00:53 Partly Cloudy 24 -4.4 13 -10.6 62 62 WNW 15 24 30.00 1016 10 16 0.00 0.00
1:53 am 01:53 Mostly Clear 22 -5.6 12 -11.1 66 66 WNW 16 26 30.00 1016 10 16 0.00 0.00
2:53 am 02:53 Clear 20 -6.7 11 -11.7 68 68 WNW 12 19 30.03 1017 10 16 0.00 0.00
3:53 am 03:53 Clear 18 -7.8 10 -12.2 71 71 W 9 15 30.05 1018 10 16 0.00 0.00
4:53 am 04:53 Clear 17 -8.3 8 -13.3 68 68 WNW 9 15 30.07 1018 10 16 0.00 0.00
5:53 am 05:53 Clear 16 -8.9 8 -13.3 71 71 W 9 15 30.09 1019 10 16 0.00 0.00
6:53 am 06:53 Clear 14 -10 7 -13.9 73 73 W 8 13 30.11 1020 10 16 0.00 0.00
7:53 am 07:53 Clear 12 -11.1 6 -14.4 77 77 W 8 13 30.13 1020 10 16 0.00 0.00
8:53 am 08:53 Sunny 17 -8.3 9 -12.8 70 70 W 9 15 30.13 1020 10 16 0.00 0.00
9:53 am 09:53 Sunny 21 -6.1 9 -12.8 59 59 WNW 13 20 30.13 1020 10 16 0.00 0.00
10:53 am 10:53 Sunny 29 -1.7 10 -12.2 45 45 WNW 15 24 30.13 1020 10 16 0.00 0.00
11:53 am 11:53 Sunny 32 0 7 -13.9 35 35 WNW 16 26 30.11 1020 10 16 0.00 0.00
12:53 pm 12:53 Sunny 33 0.6 5 -15 30 30 WNW 18 30 30.08 1019 10 16 0.00 0.00
1:53 pm 13:53 Sunny 34 1.1 5 -15 29 29 WNW 9 15 30.08 1019 10 16 0.00 0.00
2:53 pm 14:53 Sunny 34 1.1 3 -16.1 27 27 NW 13 20 30.07 1018 10 16 0.00 0.00
3:53 pm 15:53 Sunny 34 1.1 2 -16.7 25 25 NW 10 17 30.07 1018 10 16 0.00 0.00
4:53 pm 16:53 Sunny 28 -2.2 4 -15.6 35 35 NNW 6 9 30.09 1019 10 16 0.00 0.00
5:53 pm 17:53 Clear 20 -6.7 2 -16.7 45 45 N 6 9 30.13 1020 10 16 0.00 0.00
6:53 pm 18:53 Mostly Clear 23 -5 4 -15.6 44 44 NW 6 9 30.15 1021 10 16 0.00 0.00
7:53 pm 19:53 Clear 23 -5 5 -15 46 46 Calm 30.17 1022 10 16 0.00 0.00
8:53 pm 20:53 Mostly Cloudy 22 -5.6 5 -15 48 48 E 5 7 30.18 1022 10 16 0.00 0.00
9:53 pm 21:53 Cloudy 21 -6.1 6 -14.4 52 52 Calm 30.20 1023 10 16 0.00 0.00
10:53 pm 22:53 Cloudy 20 -6.7 5 -15 52 52 NNE 7 11 30.20 1023 10 16 0.00 0.00
11:53 pm 23:53 Cloudy 19 -7.2 6 -14.4 57 57 NNE 12 19 30.22 1023 10 16 0.00 0.00

Powered by AerisWeather